Disclaimer

Please do not use the information listed here in-flight or in-navigation, as they are not provided to us by the airports but are provided by volunteers, so they might be outdated.

Search


Regions


Airport information page

No radio frequency information is available.

Airport informations:
Latitude: 64° 44' 05.82" N
Longitude: 177° 44' 29.34" E
Elevation: 194 feet - 59 meters
Operating hours: Remarks
Operating agency: Civil government, landing fees and diplomatic clearance may be required
Timezone: UTC+12(+13DT) - Last Sunday in March to last Sunday in October
Fuel: N/A

Runway information:
01/19 - 11483 x 197 feet< - >3500 x 60 meters

Recent METARs:
UHMA 152100Z 36007MPS 1000 R01/1100 SN DRSN OVC005 M21/M23 Q1003 R88/720542 NOSIG RMK END R01/01006MPS QFE749/0998
UHMA 152130Z 01006G09MPS 1000 R01/1100 SN DRSN OVC005 M21/M23 Q1003 R88/720542 NOSIG RMK END R01/01006MPS QFE748/0998
UHMA 152200Z 36007MPS 1000 R01/1200 SN DRSN BKN005 OVC023 M21/M23 Q1003 R88/720542 NOSIG RMK END R01/36006MPS QFE748/0998

Airport on the map: